[[{"header":{"parameterUnit":"m.s-1","parameterCategory":1,"la1":30.2991,"la2":30.254,"lo1":-89.0895,"lo2":-89.0444,"dy":0.0017,"dx":0.0017,"nx":28,"ny":28,"refTime":"2024-04-19T21:00:00:Z","depth":0,"parameterNumber":2,"parameterNumberName":"U-component_of_WINDS"},"data":[0,0,0,0,0,0,0,0,0,0,0,0,0,0,0,0,0,0,0,0,0,0,0,0,0,0,0,0,0,0,0,0,0,0,0,0,0,0,0,0,0,0,0,0,0,0,0,0,0,0,0,0,0,0,0,0,0,0,0.5757,0.5757,0,0.5767,0.5767,0.5767,0.5724,0.5723,0.5722,0.572,0.5735,0.5736,0.5738,0,0,0,0,0,0,0,0,0,0,0,0,0,0.5706,0.5707,0.5757,0.5757,0.5757,0.5767,0.5767,0.5767,0.5724,0.5723,0.5721,0.572,0.5734,0.5736,0.5738,0,0,0,0,0,0,0,0,0,0,0,0,0,0.5723,0.5707,0.5757,0.5737,0.5735,0.5766,0.5767,0.5767,0.5725,0.5723,0.5721,0.5719,0.5734,0.5736,0.5738,0.5791,0,0,0.5745,0.5747,0,0,0,0,0,0,0,0,0.5722,0.5725,0.574,0.5738,0.5736,0.5742,0.5754,0.5775,0.5725,0.5729,0.572,0.5718,0.5739,0.5741,0.5747,0.5791,0.5792,0.5746,0.5747,0.5748,0.5749,0,0,0,0,0,0,0,0.5721,0.5724,0.5761,0.574,0.5738,0.5729,0.5729,0.5758,0.5745,0.5728,0.5725,0.5727,0.5738,0.5745,0.5747,0.5792,0.5746,0.5748,0.5749,0.575,0.5881,0.5883,0,0,0,0,0,0,0.5722,0.5724,0.576,0.5761,0.5724,0.5731,0.5732,0.5742,0.5744,0.5742,0.5728,0.5725,0.5742,0.5744,0.5747,0.581,0.5748,0.575,0.5752,0.5879,0.5881,0.5884,0,0,0,0,0,0,0.5721,0.5725,0.576,0.5741,0.5745,0.5734,0.5746,0.5743,0.575,0.5744,0.5742,0.5738,0.574,0.5744,0.578,0.5809,0.5751,0.5753,0.5876,0.588,0.5883,0.5934,0,0,0,0,0,0,0.572,0.5725,0.5744,0.5742,0.5746,0.5792,0.5748,0.5745,0.5754,0.5749,0.5752,0.5751,0.5739,0.5777,0.5782,0.5812,0.5755,0.5874,0.5878,0.5882,0.593,0.5938,0.5946,0,0,0,0,0,0.5718,0.5759,0.5745,0.575,0.5769,0.5793,0.5796,0.578,0.5756,0.5776,0.5772,0.5751,0.5805,0.5781,0.5787,0.5817,0.5872,0.5877,0.5881,0.5926,0.5937,0.5946,0,0,0,0,0,0,0.5766,0.5758,0.5743,0.5785,0.579,0.5786,0.581,0.5792,0.5805,0.58,0.5782,0.5783,0.5823,0.5823,0.5796,0.5868,0.5835,0.5841,0.5866,0.5877,0.5885,0.5884,0.5757,0,0,0,0,0,0.5781,0.58,0.5793,0.583,0.5833,0.5821,0.5831,0.5819,0.5824,0.5826,0.5825,0.5832,0.5851,0.5864,0.588,0.5929,0.593,0.5953,0.5961,0.5968,0.5974,0.6001,0.6011,0.5899,0.5899,0.5899,0,0,0.5814,0.5812,0.5825,0.584,0.5842,0.5864,0.5824,0.5848,0.5864,0.583,0.5864,0.5863,0.587,0.5913,0.5932,0.5915,0.6005,0.5974,0.5979,0.5981,0.6007,0.6017,0.6027,0.5902,0.5902,0.5901,0,0,0.5884,0.5883,0.5915,0.5918,0.5921,0.5913,0.5921,0.592,0.5917,0.5951,0.5926,0.5946,0.5978,0.5984,0.5991,0.6063,0.6045,0.6069,0.6113,0.6139,0.6148,0.6156,0.6183,0.6193,0.6075,0.6075,0.6075,0,0.5924,0.5953,0.5933,0.5959,0.5967,0.5936,0.5969,0.5973,0.5983,0.599,0.597,0.601,0.6012,0.6057,0.6074,0.6081,0.609,0.607,0.6148,0.6156,0.6163,0.6188,0.6198,0.6078,0.6078,0.6078,0.6077,0,0.6003,0.6024,0.6049,0.6058,0.6068,0.6097,0.6083,0.6097,0.6083,0.6078,0.6112,0.6114,0.6131,0.614,0.6128,0.6183,0.6173,0.6151,0.6117,0.6177,0.6201,0.621,0.6083,0.6081,0.6081,0.608,0,0,0.6104,0.6101,0.6111,0.6115,0.6117,0.6133,0.6161,0.6176,0.6189,0.6197,0.6221,0.6249,0.6228,0.6237,0.6225,0.6248,0.6306,0.6223,0.6223,0.624,0.6369,0.6387,0.6398,0.6293,0.6295,0.6297,0.6369,0,0.6174,0.622,0.6203,0.6252,0.6271,0.6242,0.6267,0.6272,0.6267,0.6284,0.628,0.63,0.6271,0.6276,0.6298,0.6295,0.6332,0.6289,0.6318,0.6319,0.6318,0.641,0.6429,0.6497,0.6378,0.638,0.6381,0,0.6261,0.6271,0.6321,0.6319,0.6327,0.6349,0.6362,0.6378,0.6384,0.6379,0.6388,0.6371,0.64,0.6365,0.6406,0.6377,0.6387,0.6388,0.639,0.6393,0.6355,0.6418,0.6518,0.6529,0.6395,0.6394,0.6393,0,0.6331,0.6357,0.6391,0.6395,0.6394,0.641,0.6411,0.6414,0.6424,0.6436,0.6442,0.6458,0.6467,0.648,0.6468,0.6443,0.6511,0.6475,0.651,0.651,0.6527,0.6526,0.6632,0.6531,0.6531,0.6531,0.6531,0,0.6411,0.6444,0.6422,0.6443,0.6479,0.6459,0.6496,0.6493,0.6496,0.6517,0.6493,0.6513,0.6496,0.6515,0.6506,0.6542,0.6546,0.6544,0.6542,0.6547,0.6548,0.6555,0.6551,0.6534,0.6533,0.6532,0.6532,0,0.6497,0.6484,0.6518,0.6514,0.6514,0.654,0.6537,0.6557,0.655,0.6577,0.6583,0.6573,0.6594,0.6583,0.6606,0.66,0.6647,0.6638,0.6645,0.6643,0.6679,0.6677,0.6795,0.681,0.6698,0.6699,0.67,0,0.6549,0.6573,0.6571,0.6583,0.6584,0.6603,0.6613,0.6595,0.6607,0.6615,0.6634,0.6653,0.6668,0.6704,0.67,0.6718,0.6709,0.675,0.6712,0.6717,0.6712,0.6711,0.6714,0.6758,0.6759,0.676,0.6761,0,0.6645,0.6637,0.6651,0.6664,0.6676,0.6686,0.6693,0.6704,0.6687,0.6701,0.6722,0.6733,0.6756,0.6776,0.6791,0.6794,0.6776,0.6772,0.6782,0.6789,0.6793,0.6792,0.6668,0.677,0.6769,0.6769,0.6768,0.6768,0.6716,0.6736,0.6738,0.6755,0.6759,0.6766,0.6785,0.678,0.6796,0.6813,0.6801,0.6826,0.6832,0.685,0.6855,0.6876,0.686,0.6873,0.6877,0.6881,0.6886,0.6788,0.6878,0.6878,0.6878,0.6877,0.6877,0,0.6812,0.6811,0.6827,0.6837,0.6851,0.683,0.6838,0.6851,0.6873,0.6879,0.6893,0.6918,0.6937,0.6934,0.6952,0.697,0.6962,0.6975,0.6975,0.6976,0.6898,0.6889,0.6981,0.6981,0.6981,0.6981,0.6981,0.6981,0.6863,0.6896,0.6888,0.6924,0.6923,0.6946,0.6952,0.696,0.6964,0.6992,0.7008,0.7005,0.7008,0.7026,0.7043,0.7042,0.705,0.7067,0.7063,0.6991,0.6981,0.6971,0.6963,0.7069,0.7069,0.7139,0.714,0.714]},{"header":{"parameterUnit":"m.s-1","parameterCategory":1,"la1":30.2991,"la2":30.254,"lo1":-89.0895,"lo2":-89.0444,"dy":0.0017,"dx":0.0017,"nx":28,"ny":28,"refTime":"2024-04-19T21:00:00:Z","depth":0,"parameterNumber":3,"parameterNumberName":"V-component_of_WINDS"},"data":[0,0,0,0,0,0,0,0,0,0,0,0,0,0,0,0,0,0,0,0,0,0,0,0,0,0,0,0,0,0,0,0,0,0,0,0,0,0,0,0,0,0,0,0,0,0,0,0,0,0,0,0,0,0,0,0,0,0,-0.2037,-0.2037,0,-0.2044,-0.2044,-0.2044,-0.209,-0.2091,-0.2092,-0.2093,-0.2101,-0.21,-0.2099,0,0,0,0,0,0,0,0,0,0,0,0,0,-0.2063,-0.2062,-0.2037,-0.2037,-0.2037,-0.2044,-0.2044,-0.2044,-0.209,-0.2091,-0.2092,-0.2094,-0.2101,-0.21,-0.2099,0,0,0,0,0,0,0,0,0,0,0,0,0,-0.2059,-0.2062,-0.2037,-0.2061,-0.2063,-0.2044,-0.2044,-0.2044,-0.2089,-0.2091,-0.2093,-0.2094,-0.2101,-0.21,-0.2099,-0.2058,0,0,-0.2095,-0.2094,0,0,0,0,0,0,0,0,-0.2059,-0.2058,-0.2057,-0.2059,-0.2061,-0.2068,-0.2056,-0.2049,-0.2089,-0.2079,-0.2093,-0.2095,-0.2088,-0.2088,-0.2086,-0.2058,-0.2058,-0.2095,-0.2094,-0.2094,-0.2093,0,0,0,0,0,0,0,-0.2059,-0.2058,-0.204,-0.2057,-0.206,-0.2071,-0.2072,-0.2055,-0.2074,-0.208,-0.2084,-0.2084,-0.209,-0.2087,-0.2086,-0.2059,-0.2095,-0.2094,-0.2093,-0.2092,-0.1997,-0.1996,0,0,0,0,0,0,-0.2056,-0.2058,-0.2039,-0.204,-0.2064,-0.2069,-0.207,-0.2064,-0.2075,-0.2078,-0.2082,-0.2086,-0.2088,-0.2088,-0.2087,-0.204,-0.2094,-0.2092,-0.2092,-0.1999,-0.1997,-0.1995,0,0,0,0,0,0,-0.2057,-0.2054,-0.2039,-0.205,-0.2049,-0.2067,-0.2059,-0.2063,-0.2061,-0.2076,-0.208,-0.2076,-0.209,-0.2089,-0.2065,-0.2041,-0.2092,-0.2091,-0.2001,-0.1999,-0.1996,-0.1946,0,0,0,0,0,0,-0.2057,-0.2054,-0.2039,-0.2049,-0.2048,-0.2017,-0.2058,-0.2062,-0.2058,-0.2063,-0.2071,-0.2074,-0.2091,-0.2066,-0.2063,-0.204,-0.209,-0.2004,-0.2,-0.1997,-0.195,-0.1942,-0.1935,0,0,0,0,0,-0.2058,-0.2024,-0.2038,-0.2035,-0.2029,-0.2015,-0.2015,-0.2034,-0.2056,-0.2041,-0.2051,-0.2074,-0.2044,-0.2063,-0.2061,-0.2037,-0.2005,-0.2001,-0.1997,-0.1953,-0.1943,-0.1935,0,0,0,0,0,0,-0.2011,-0.2026,-0.2041,-0.201,-0.2011,-0.2023,-0.2005,-0.2024,-0.2019,-0.2023,-0.2048,-0.2049,-0.2022,-0.2027,-0.2048,-0.1997,-0.2028,-0.2024,-0.1996,-0.1986,-0.1979,-0.1979,-0.2089,0,0,0,0,0,-0.1997,-0.1984,-0.1998,-0.1969,-0.1969,-0.1986,-0.1981,-0.1996,-0.1998,-0.1999,-0.2007,-0.2009,-0.2,-0.1993,-0.1985,-0.195,-0.1953,-0.1932,-0.1924,-0.1918,-0.1914,-0.1896,-0.1887,-0.1982,-0.1982,-0.1982,0,0,-0.1968,-0.1975,-0.1965,-0.196,-0.1963,-0.1949,-0.1987,-0.1971,-0.1961,-0.1997,-0.1975,-0.1981,-0.1984,-0.1954,-0.1941,-0.1957,-0.1888,-0.1913,-0.1908,-0.1908,-0.1891,-0.1882,-0.1874,-0.1979,-0.198,-0.198,0,0,-0.1909,-0.1912,-0.1889,-0.189,-0.1894,-0.1905,-0.1899,-0.1908,-0.1914,-0.1892,-0.1918,-0.1907,-0.189,-0.1892,-0.189,-0.183,-0.1851,-0.1826,-0.1788,-0.177,-0.1763,-0.1757,-0.1736,-0.1728,-0.1822,-0.1822,-0.1822,0,-0.1873,-0.1854,-0.1874,-0.1857,-0.1854,-0.1884,-0.1861,-0.1861,-0.1862,-0.1859,-0.1877,-0.1857,-0.1861,-0.1832,-0.1817,-0.1814,-0.1809,-0.1826,-0.1762,-0.1756,-0.175,-0.1731,-0.1723,-0.1819,-0.1819,-0.182,-0.182,0,-0.1809,-0.1795,-0.1776,-0.1776,-0.177,-0.1749,-0.1767,-0.1759,-0.1774,-0.1783,-0.1761,-0.1766,-0.1761,-0.1755,-0.1769,-0.1727,-0.1737,-0.1758,-0.179,-0.1738,-0.172,-0.1713,-0.1815,-0.1816,-0.1817,-0.1818,0,0,-0.1723,-0.1733,-0.1726,-0.1726,-0.1731,-0.1721,-0.1701,-0.1695,-0.1688,-0.1687,-0.1671,-0.1656,-0.1675,-0.1673,-0.1688,-0.1672,-0.1625,-0.1695,-0.1695,-0.1683,-0.158,-0.1565,-0.1556,-0.1638,-0.1637,-0.1636,-0.158,0,-0.1667,-0.1634,-0.1652,-0.1617,-0.1605,-0.1633,-0.1616,-0.1617,-0.1625,-0.1616,-0.1625,-0.1614,-0.164,-0.1639,-0.1624,-0.1634,-0.1605,-0.1638,-0.1625,-0.1624,-0.1624,-0.1546,-0.1531,-0.1478,-0.1573,-0.1571,-0.1571,0,-0.1598,-0.1593,-0.1557,-0.1564,-0.156,-0.1544,-0.154,-0.153,-0.1532,-0.1539,-0.1536,-0.1555,-0.1536,-0.1566,-0.1541,-0.1563,-0.1559,-0.1562,-0.1561,-0.1561,-0.1595,-0.1546,-0.1461,-0.1453,-0.156,-0.156,-0.1561,0,-0.1539,-0.1524,-0.1501,-0.15,-0.1507,-0.1496,-0.1498,-0.1502,-0.1497,-0.1493,-0.149,-0.1483,-0.148,-0.1475,-0.1491,-0.1512,-0.1464,-0.1496,-0.147,-0.1469,-0.146,-0.146,-0.1374,-0.1455,-0.1455,-0.1455,-0.1455,0,-0.1476,-0.1453,-0.1475,-0.146,-0.1435,-0.1455,-0.143,-0.1435,-0.1438,-0.1425,-0.1449,-0.1436,-0.1458,-0.1447,-0.146,-0.1437,-0.1435,-0.1441,-0.1445,-0.1439,-0.1439,-0.1438,-0.1442,-0.1453,-0.1453,-0.1454,-0.1454,0,-0.1407,-0.1421,-0.1397,-0.1406,-0.1407,-0.1388,-0.1396,-0.1383,-0.1392,-0.1376,-0.1373,-0.1387,-0.1376,-0.1391,-0.1382,-0.139,-0.1359,-0.1368,-0.1359,-0.1362,-0.1336,-0.1338,-0.1247,-0.1236,-0.1322,-0.1321,-0.1321,0,-0.1367,-0.135,-0.1356,-0.1349,-0.135,-0.1338,-0.1333,-0.1352,-0.1345,-0.1345,-0.1333,-0.1323,-0.1317,-0.1298,-0.1308,-0.1301,-0.131,-0.1278,-0.1309,-0.1304,-0.1311,-0.1312,-0.1311,-0.1273,-0.1272,-0.1271,-0.127,0,-0.1293,-0.13,-0.1292,-0.1286,-0.1279,-0.1275,-0.1273,-0.1265,-0.1284,-0.1276,-0.1265,-0.126,-0.125,-0.1241,-0.1236,-0.1239,-0.1257,-0.126,-0.1254,-0.1249,-0.1245,-0.1247,-0.1343,-0.1262,-0.1263,-0.1264,-0.1264,-0.1264,-0.1238,-0.1224,-0.1226,-0.1216,-0.1216,-0.1213,-0.1201,-0.1209,-0.12,-0.1193,-0.1204,-0.119,-0.1191,-0.1187,-0.1187,-0.1176,-0.119,-0.1181,-0.1179,-0.1177,-0.1173,-0.1245,-0.1175,-0.1176,-0.1176,-0.1176,-0.1176,0,-0.1167,-0.1169,-0.116,-0.1155,-0.1147,-0.1165,-0.1163,-0.1155,-0.1142,-0.1142,-0.1135,-0.1122,-0.1112,-0.1121,-0.1113,-0.1103,-0.1111,-0.1101,-0.1102,-0.1102,-0.1161,-0.1167,-0.1094,-0.1094,-0.1094,-0.1094,-0.1094,-0.1094,-0.1129,-0.1107,-0.1114,-0.1091,-0.1094,-0.108,-0.1077,-0.1075,-0.1075,-0.1059,-0.1051,-0.1056,-0.106,-0.1052,-0.1044,-0.1047,-0.1044,-0.103,-0.1036,-0.109,-0.1098,-0.1106,-0.1112,-0.1029,-0.1029,-0.0978,-0.0978,-0.0978]}]]